Regional Weather Roundup
Issued by NWS Charleston, SC

Current Version | Previous Version | Graphics & Text | Print | Product List | Glossary On
Versions: 1 2 3 4 5 6 7 8 9 10 11 12 13 14 15 16 17 18 19 20 21 22 23 24 25 26 27 28 29 30 31 32 33 34 35 36 37 38 39 40 41 42 43 44 45 46 47 48 49 50
000
ASUS42 KCHS 242027
RWRCHS

REGIONAL WEATHER ROUNDUP
NATIONAL WEATHER SERVICE CHARLESTON SC
400 PM EDT SUN MAY 24 2015

NOTE: "FAIR" INDICATES FEW OR NO CLOUDS BELOW 12,000 FEET WITH NO
SIGNIFICANT WEATHER AND/OR OBSTRUCTIONS TO VISIBILITY.

NOT ALL STATIONS ARE QUALITY CONTROLLED BY THE NATIONAL
WEATHER SERVICE. USE DATA WITH CAUTION...ESPECIALLY
DEWPOINT OBSERVATIONS.

SCZ027-030-031-034>040-042>050-242100-
...SOUTHEAST SOUTH CAROLINA...

CITY           SKY/WX    TMP DP  RH WIND       PRES   REMARKS
N CHARLESTON   MOSUNNY   80  58  46 E9        30.32F
WATERFRONT PAR   N/A     76  63  63 E14       30.30F
MOUNT PLEASANT FAIR      81  61  50 E10G20    30.32F
JOHNS ISLAND   CLEAR     79  63  57 E16       30.32F
PINOPOLIS        N/A     82  55  39 SE6       30.24F
MONCKS CORNER  FAIR      82  57  42 E8        30.31F
SUMMERVILLE    MOCLDY    81  59  47 E8        30.32F
BEAUFORT MCAS  PTSUNNY   79  62  56 E16G22    30.31F
BEAUFORT ARPT  CLOUDY    77  64  65 E13G20    30.30F
HILTON HEAD IS MOSUNNY   79  66  65 N9G20     30.32F
WALTERBORO     PTCLDY    81  55  41 E10       30.31F
ALLENDALE      FAIR      82  55  39 E7G14     30.28F

...SOUTHERN MIDLANDS AND PEE DEE...

CITY           SKY/WX    TMP DP  RH WIND       PRES   REMARKS
GEORGETOWN     NOT AVBL
KINGSTREE      NOT AVBL
ORANGEBURG     MOSUNNY   82  55  39 SE9       30.31F
BARNWELL       FAIR      84  55  37 SE12      30.29F
AIKEN          FAIR      82  48  30 E10G17    30.31F
MANNING        FAIR      79  54  41 SE5       30.32F
COLUMBIA       MOSUNNY   84  53  34 E15       30.30F
SUMTER         MOSUNNY   84  55  35 S12G17    30.30F
FLORENCE       MOSUNNY   84  55  36 SE14      30.33F
MYRTLE BEACH   MOSUNNY   81  57  44 SE14      30.38F
N MYRTLE BEACH SUNNY     79  59  50 SE12      30.36F

$$

GAZ063-065-086>088-099>101-113>116-118-119-134>141-150-242100-
...SOUTHEAST GEORGIA...

CITY           SKY/WX    TMP DP  RH WIND       PRES   REMARKS
SAVANNAH ARPT  PTSUNNY   80  61  52 E17G23    30.29F
HUNTER AAF     MOSUNNY   83  66  56 E16G22    30.27F
FORT STEWART   MOSUNNY   82  59  44 E13G21    30.24F
STATESBORO     PTSUNNY   83  62  48 E9        30.26F
SYLVANIA       PTCLDY    84  62  46 SE8       30.28F
CLAXTON        FAIR      82  61  47 E7G17     30.26F

...CSRA...CENTRAL AND FAR SOUTHEAST GEORGIA...

CITY           SKY/WX    TMP DP  RH WIND       PRES   REMARKS
THOMSON        MOSUNNY   85  59  40 E3        30.31F
AUGUSTA-BUSH   MOSUNNY   85  56  37 SE9       30.27F
AUGUSTA-DANIEL SUNNY     85  54  34 S10G17    30.28F
SWAINSBORO     FAIR      88  57  35 E7        30.25F
VIDALIA        PTSUNNY   86  57  37 E13G18    30.24F
EASTMAN        FAIR      89  59  36 SE12      30.25F
HAZLEHURST     FAIR      86  58  37 E5        30.22F
ALMA           MOSUNNY   83  57  41 E9        30.23F
WAYCROSS       PTSUNNY   84  62  48 SE14      30.23F
JESUP          FAIR      86  63  45 E14G22    30.25F
BAXLEY         FAIR      84  59  42 SE7       30.23F
BRUNSWICK      MOSUNNY   82  63  51 NE15G23   30.26F
SAINT SIMONS   NOT AVBL

$$

SCZ027-028-034-036>038-045-046-048>050-GAZ119-141-242100-
...LAKE AND SUPPLEMENTAL COASTAL OBSERVATIONS...

STATION/POSITION TIME  TEMP    WIND        PRES    WAVE   SWELL
                       AIR SEA DIR/SP/G            HT/PER HT/PER/DIR
                 (UTC) (F)     (DEG/KT/KT) (MB)    (FT/S) (FT/S/D)
UPR LAKE MARION  NOT AVBL
WINYAH BAY       1945   76      90/ 11     1027.0S
LAKE MURRAY      2000   80      90/  6/ 10 1025.4F
ACE BASIN NERRS  1900   81      90/  5     1027.0S
FORT PULASKI     2000   76 78   60/ 16/ 19 1026.3F
SAPELO ISLAND    2000   80      60/ 14     1025.0F

$$

ANZ835-935-AMZ111-154-330-350-352-354-370-450-454-472-242100-
...C-MAN AND BUOY OBSERVATIONS...

STATION/POSITION TIME  TEMP    WIND        PRES    WAVE   SWELL
                       AIR SEA DIR/SP/G            HT/PER HT/PER/DIR
                 (UTC) (F)     (DEG/KT/KT) (MB)    (FT/S) (FT/S/D)
BUOY 41004       1950   76 75   90/ 14/ 16 1026.2F   4/ 8   2/ 8
BUOY 41008       1950   75 75   50/ 14/ 17 1025.2F   4/ 8   3/100/ 8
FOLLY BEACH CMAN 2000   76      80/ 13/ 15 1027.0F
CAPERS NEARSHORE NOT AVBL
FRIPP NEARSHORE  1900   76      80/ 17/ 19 1025.8F


STATION/POSITION TIME  TEMP    WIND        PRES    WAVE   SWELL
                       AIR SEA DIR/SP/G            HT/PER HT/PER/DIR
                 (UTC) (F)     (DEG/KT/KT) (MB)    (FT/S) (FT/S/D)
5E ST. MARYS GA  1921      78                N/A     4/ 8
FRYING PAN BUOY  1950   76 74  110/ 12/ 16 1028.5F   4/ 6   2/130/ 7
BUOY 41025       1950   73 78   30/  6/  8 1028.9F   2/ 8   2/ 70/ 8
CAPE LOOKOUT NC  2000   74      80/  6/  8 1028.2F
BUOY 41002       1950   72 74   80/ 16/ 21 1027.0F   6/ 7
BUOY 41010       1920   79 80   90/ 14/ 16 1023.0F
ST AUGUSTINE FL  2000   77 78   50/  9/ 11 1024.4F


$$



USA.gov is the U.S. government's official web portal to all federal, state and local government web resources and services.